{"data":{"norad_id":59551,"epoch":"2026-09-21T10:37:34.340448Z","epoch_age_seconds":86815,"freshness":"FRESH","line1":"1 59551U 24074T   26264.44275857  .00000148  00000+0  14904-4 0  9998","line2":"2 59551  43.0036 317.8913 0001555 277.5488  82.5187 15.27576865135958","mean_motion":15.27576865,"eccentricity":0.0001555,"inclination_deg":43.0036,"raan_deg":317.8913,"arg_perigee_deg":277.5488,"mean_anomaly_deg":82.5187,"bstar":1.4904e-5,"rev_number":13595,"period_min":94.266942174461,"perigee_km":481.99156747585,"apogee_km":484.12539927118,"semimajor_km":6861.1954833735,"source":"CELESTRAK","updated_at":"2026-09-22T09:00:48.974998Z"}}